FW2413 Weather Reports


Display with metric or nautical units.
time (UTC)temp
F
wind
direction
speed
MPH
gust
MPH
rain 1hr
in
rain 24hr
in
rain mn
in
humidity
%
barometer
mb
20191022014013 77 292 0.0 0.0 0.00 0.06 0.06 99 1017.0
20191022013455 77 112 0.0 0.0 0.00 0.06 0.06 99 1016.9
20191022012950 77 112 0.0 0.0 0.00 0.06 0.06 99 1016.9
20191022012450 77 112 0.0 0.0 0.00 0.06 0.06 99 1016.9
20191022011948 77 180 0.0 0.0 0.00 0.06 0.06 99 1016.9
20191022011435 77 112 0.0 0.0 0.00 0.06 0.06 99 1016.9
20191022010911 77 158 0.0 0.0 0.00 0.06 0.06 99 1016.9
20191022010337 77 135 0.0 0.0 0.00 0.06 0.06 99 1016.9
20191022005833 77 112 0.0 0.0 0.00 0.06 0.06 99 1016.9
20191022005322 77 135 0.0 0.0 0.00 0.06 0.06 99 1016.9
20191022004814 77 135 0.0 0.0 0.00 0.06 0.06 99 1016.8
20191022004306 77 135 0.0 0.0 0.00 0.06 0.06 99 1016.8
20191022003742 77 158 0.0 0.0 0.00 0.06 0.06 99 1016.8
20191022003233 77 225 0.0 0.0 0.00 0.06 0.06 99 1016.8
20191022002729 77 225 0.0 0.0 0.00 0.06 0.06 99 1016.8
20191022002205 77 202 0.0 0.0 0.00 0.06 0.06 99 1016.7
20191022001654 77 180 0.0 0.0 0.00 0.06 0.06 99 1016.7
20191022001124 77 180 0.0 0.0 0.00 0.06 0.06 98 1016.6
20191022000615 77 112 0.0 0.0 0.00 0.06 0.06 98 1016.6
20191022000050 77 135 0.0 0.0 0.00 0.06 0.06 97 1016.4
20191021235515 77 202 0.0 0.0 0.00 0.06 0.06 96 1016.4
20191021235006 77 112 0.0 0.0 0.00 0.06 0.06 96 1016.4
20191021234445 77 180 0.0 0.0 0.00 0.06 0.06 95 1016.4
20191021233934 77 135 0.0 0.0 0.00 0.06 0.06 95 1016.4
20191021233357 77 225 0.0 0.0 0.00 0.06 0.06 95 1016.3
20191021232822 77 180 0.0 0.0 0.00 0.06 0.06 94 1016.3
20191021232312 78 112 0.0 0.0 0.00 0.06 0.06 93 1016.2
20191021231805 78 112 0.0 0.0 0.00 0.06 0.06 92 1016.2
20191021231246 78 112 0.0 0.0 0.00 0.06 0.06 92 1016.1
20191021230726 78 112 0.0 0.0 0.00 0.06 0.06 92 1016.1
20191021230204 78 135 0.0 0.0 0.00 0.06 0.06 92 1016.1
20191021225659 78 112 0.0 0.0 0.00 0.06 0.06 91 1016.0
20191021225140 78 68 0.0 0.0 0.00 0.06 0.06 91 1016.0
20191021224626 79 112 0.0 0.0 0.00 0.06 0.06 90 1015.8
20191021224051 79 248 0.0 0.0 0.00 0.06 0.06 90 1015.8
20191021223515 79 90 0.0 0.0 0.00 0.06 0.06 90 1016.0
20191021223008 79 338 0.0 2.0 0.00 0.06 0.06 89 1016.0
20191021222438 80 180 0.0 2.0 0.00 0.06 0.06 89 1016.2
20191021221937 80 135 0.0 0.0 0.00 0.06 0.06 89 1016.2
20191021221429 80 158 0.0 2.0 0.00 0.06 0.06 88 1016.2
20191021220911 80 270 0.0 2.0 0.00 0.06 0.06 88 1015.9
20191021220402 81 112 0.0 2.0 0.00 0.06 0.06 88 1015.9
20191021215841 81 68 0.0 0.0 0.00 0.06 0.06 87 1016.0
20191021215333 82 248 0.0 0.0 0.00 0.06 0.06 86 1016.0
20191021214829 82 248 0.0 0.0 0.00 0.06 0.06 85 1016.0
20191021214304 82 180 0.0 0.0 0.00 0.06 0.06 86 1016.0
20191021213755 82 180 0.0 0.0 0.00 0.06 0.06 86 1016.0
20191021213253 83 135 0.0 0.0 0.00 0.06 0.06 83 1016.3
20191021212745 83 225 0.0 0.0 0.00 0.06 0.06 83 1016.3
20191021212219 84 225 0.0 0.0 0.00 0.06 0.06 80 1016.2
20191021211659 85 68 0.0 0.0 0.00 0.06 0.06 80 1016.2
20191021211149 84 112 0.0 0.0 0.00 0.06 0.06 81 1016.0
20191021210645 84 180 0.0 0.0 0.00 0.06 0.06 82 1016.0
20191021210125 83 292 0.0 0.0 0.00 0.06 0.06 81 1016.0
20191021205612 84 90 0.0 0.0 0.00 0.06 0.06 80 1015.9
20191021205052 84 158 0.0 0.0 0.00 0.06 0.06 78 1015.9
20191021204517 84 112 0.0 2.0 0.00 0.06 0.06 80 1015.9
20191021203957 83 180 0.0 2.0 0.00 0.06 0.06 82 1015.9
20191021203457 83 158 0.0 2.0 0.00 0.06 0.06 86 1015.9
20191021202938 82 270 0.0 0.0 0.00 0.06 0.06 86 1015.9
20191021202427 81 112 0.0 1.0 0.00 0.06 0.06 86 1015.9
20191021201926 81 248 0.0 1.0 0.00 0.06 0.06 88 1015.9
20191021201358 80 225 0.0 0.0 0.00 0.06 0.06 89 1015.9
20191021200849 80 315 0.0 0.0 0.00 0.06 0.06 89 1016.2
20191021200334 80 292 0.0 0.0 0.00 0.06 0.06 90 1016.2
20191021195820 80 45 0.0 0.0 0.00 0.06 0.06 92 1016.2
20191021195316 79 135 0.0 0.0 0.00 0.06 0.06 92 1016.2
20191021194811 79 0 0.0 0.0 0.00 0.06 0.06 93 1016.2
20191021194301 79 202 0.0 0.0 0.00 0.06 0.06 93 1016.2
20191021193757 79 158 0.0 0.0 0.00 0.06 0.06 93 1016.2
20191021193222 80 180 0.0 0.0 0.00 0.06 0.06 90 1016.2
20191021192709 79 180 0.0 0.0 0.06 0.06 0.06 90 1016.2
20191021192148 79 270 0.0 0.0 0.06 0.06 0.06 89 1016.1
20191021191645 79 135 0.0 0.0 0.06 0.06 0.06 89 1016.1
20191021191130 79 0 0.0 0.0 0.06 0.06 0.06 89 1016.3
20191021190611 79 180 0.0 0.0 0.06 0.06 0.06 88 1016.3
20191021190102 80 22 0.0 2.0 0.06 0.06 0.06 87 1016.3
20191021185557 80 112 0.0 2.0 0.06 0.06 0.06 86 1016.3
20191021185034 81 202 1.0 3.0 0.06 0.06 0.06 85 1016.3
20191021184523 81 248 2.0 3.0 0.06 0.06 0.06 83 1016.3
20191021183950 83 225 1.0 2.0 0.06 0.06 0.06 81 1016.3
20191021183447 84 248 1.0 4.0 0.06 0.06 0.06 79 1015.9
20191021182919 85 180 2.0 4.0 0.04 0.04 0.04 76 1015.9
20191021182410 86 270 0.0 2.0 0.00 0.00 0.00 70 1016.0
20191021181856 86 225 1.0 4.0 0.00 0.00 0.00 69 1016.0
20191021181342 86 180 2.0 4.0 0.00 0.00 0.00 69 1016.0
20191021180821 86 112 1.0 3.0 0.00 0.00 0.00 71 1016.2
20191021180258 86 158 1.0 4.0 0.00 0.00 0.00 69 1016.2
20191021175741 86 202 1.0 4.0 0.00 0.00 0.00 68 1016.4
20191021175226 86 90 2.0 5.0 0.00 0.00 0.00 67 1016.4
20191021174708 87 112 2.0 5.0 0.00 0.00 0.00 66 1016.6
20191021174201 87 202 2.0 3.0 0.00 0.00 0.00 66 1016.6
20191021173655 88 248 2.0 4.0 0.00 0.00 0.00 69 1016.7
20191021173131 87 315 2.0 4.0 0.00 0.00 0.00 68 1016.7
20191021172626 87 338 2.0 5.0 0.00 0.00 0.00 68 1016.7
20191021172116 86 158 3.0 5.0 0.00 0.00 0.00 69 1016.8
20191021171553 86 202 2.0 7.0 0.00 0.00 0.00 69 1016.8
20191021171044 86 202 2.0 7.0 0.00 0.00 0.00 70 1017.0
20191021170529 86 180 2.0 6.0 0.00 0.00 0.00 70 1017.0
20191021170017 86 112 3.0 6.0 0.00 0.00 0.00 70 1017.0
20191021165512 87 90 2.0 5.0 0.00 0.00 0.00 68 1017.0
20191021165000 87 135 3.0 5.0 0.00 0.00 0.00 68 1017.0
20191021164451 87 180 2.0 6.0 0.00 0.00 0.00 72 1017.0
20191021163942 86 112 4.0 6.0 0.00 0.00 0.00 73 1017.0
20191021163421 86 22 4.0 8.0 0.00 0.00 0.00 71 1017.1
20191021162912 86 112 4.0 8.0 0.00 0.00 0.00 72 1017.1
20191021162408 86 135 2.0 6.0 0.00 0.00 0.00 73 1017.2
20191021161857 85 225 2.0 4.0 0.00 0.00 0.00 75 1017.2
20191021161353 85 248 3.0 4.0 0.00 0.00 0.00 75 1017.2
20191021160853 85 112 1.0 4.0 0.00 0.00 0.00 77 1017.3
20191021160344 84 90 2.0 5.0 0.00 0.00 0.00 77 1017.3
20191021155826 85 202 2.0 6.0 0.00 0.00 0.00 77 1017.3
20191021155317 84 112 3.0 6.0 0.00 0.00 0.00 76 1017.3
20191021154814 84 112 1.0 6.0 0.00 0.00 0.00 78 1017.2
20191021154303 84 180 4.0 6.0 0.00 0.00 0.00 77 1017.2
20191021153754 84 158 2.0 5.0 0.00 0.00 0.00 78 1017.2
20191021153245 84 68 2.0 5.0 0.00 0.00 0.00 78 1017.2
20191021152725 84 112 3.0 5.0 0.00 0.00 0.00 78 1017.2
20191021152220 84 68 3.0 6.0 0.00 0.00 0.00 79 1017.2
20191021151709 84 135 3.0 7.0 0.00 0.00 0.00 81 1017.2
20191021151159 83 135 3.0 7.0 0.00 0.00 0.00 80 1017.3
20191021150650 83 112 2.0 4.0 0.00 0.00 0.00 82 1017.3
20191021150140 83 158 2.0 5.0 0.00 0.00 0.00 83 1017.3
20191021145621 82 112 3.0 5.0 0.00 0.00 0.00 84 1017.3
20191021145111 82 112 2.0 5.0 0.00 0.00 0.00 85 1017.3
20191021144548 82 135 2.0 5.0 0.00 0.00 0.00 86 1017.1
20191021144045 81 315 3.0 5.0 0.00 0.00 0.00 87 1017.1
20191021143531 81 90 2.0 6.0 0.00 0.00 0.00 86 1017.0
20191021143017 81 292 3.0 6.0 0.00 0.00 0.00 88 1017.0
20191021142515 80 112 1.0 4.0 0.00 0.00 0.00 90 1017.0
20191021142007 80 68 2.0 4.0 0.00 0.00 0.00 92 1017.0
20191021141503 79 68 2.0 4.0 0.00 0.00 0.00 93 1017.0
20191021140950 79 135 2.0 4.0 0.00 0.00 0.00 93 1016.9
20191021140441 78 90 1.0 4.0 0.00 0.00 0.00 94 1016.9
20191021135932 78 112 2.0 4.0 0.00 0.00 0.00 94 1016.8
20191021135415 78 158 1.0 3.0 0.00 0.00 0.00 96 1016.8
20191021134909 78 158 1.0 3.0 0.00 0.00 0.00 96 1016.8
20191021134410 76 45 1.0 3.0 0.00 0.00 0.00 98 1016.8
20191021133906 76 112 0.0 2.0 0.00 0.00 0.00 99 1016.8